Theta_e
353 360 366 366 366 366 368 366 364 364 362 361 360 361 361 362 363 363 363 363 362 361 362 362 360 358 357 354 354 356 356 356 356 355 354 352 352 351 349 347 348 345 350
358 361 365 366 366 366 368 365 364 363 361 361 362 362 361 362 363 364 364 363 362 360 359 360 359 357 356 354 354 356 356 356 356 354 354 354 353 351 348 348 350 348 349
359 363 362 366 366 367 366 365 363 362 361 361 363 362 361 363 363 363 364 363 360 359 359 357 355 355 354 353 353 354 354 354 353 354 355 354 346 350 348 346 345 347 348
359 363 361 365 365 366 366 364 362 362 362 362 362 362 362 363 363 363 363 362 360 357 356 356 354 354 354 353 353 353 352 351 351 352 352 347 348 350 349 347 346 345 345
358 360 364 364 365 365 365 364 362 362 362 362 362 362 363 363 363 362 362 361 358 356 353 354 354 354 354 354 354 353 353 354 356 356 352 350 353 351 351 349 349 347 344
355 358 362 363 364 364 365 364 363 363 362 362 362 362 363 363 362 362 362 360 357 354 352 353 353 354 353 352 353 353 353 353 354 354 346 346 345 353 352 351 351 349 345
352 359 359 362 363 364 364 364 363 363 362 362 362 362 362 362 361 361 360 358 357 355 352 352 353 354 353 352 351 351 351 351 349 349 347 345 352 356 354 352 351 351 350
351 360 357 362 362 362 363 362 362 361 362 362 362 362 362 361 361 360 359 358 358 355 353 353 354 354 353 353 351 350 349 349 347 347 347 345 350 350 352 355 354 353 353
354 357 356 355 360 361 361 361 361 361 361 361 361 361 361 360 360 359 358 358 356 355 353 353 354 353 353 352 352 351 350 350 346 342 342 343 347 349 351 353 356 355 355
352 355 354 353 353 354 357 360 360 360 360 360 360 360 360 359 358 358 358 357 355 353 352 352 352 352 351 351 351 350 350 349 343 339 338 339 347 342 344 352 356 358 357
348 353 352 350 349 349 350 355 358 357 358 359 359 359 356 351 354 355 353 357 356 353 352 351 351 352 351 351 351 351 348 338 336 337 336 348 348 342 342 349 351 354 359
345 349 349 349 349 349 348 355 352 351 351 351 351 355 351 349 351 347 353 358 356 355 354 354 354 352 348 337 338 347 340 333 331 334 334 350 348 346 346 348 351 351 357
346 348 349 351 355 350 348 354 349 351 350 350 351 356 354 347 350 348 351 353 354 353 347 350 349 347 342 340 338 341 339 336 334 334 337 351 349 349 349 350 351 352 352
346 348 350 352 355 357 350 352 350 350 351 351 352 359 356 350 353 349 344 345 352 346 350 348 346 349 347 346 344 342 340 339 337 335 338 350 348 349 349 350 351 351 352
346 348 350 355 359 361 361 352 353 354 352 354 355 358 356 353 358 354 353 349 349 349 348 349 349 351 350 352 352 350 349 348 347 344 343 352 348 347 349 349 350 352 353
339 351 353 354 362 359 360 365 356 357 356 355 355 356 361 359 364 355 356 354 353 352 351 351 351 353 352 353 351 352 352 353 353 355 350 350 350 347 347 349 349 350 353
334 347 355 357 360 363 360 360 360 356 355 354 354 362 361 363 363 364 354 354 353 357 356 356 356 356 354 354 356 353 353 353 352 355 353 351 348 348 346 347 349 350 351
330 334 351 355 358 362 364 362 358 358 358 356 357 357 360 362 363 365 357 355 356 359 357 358 357 353 353 353 351 349 348 352 355 358 355 355 352 348 349 347 348 349 350
334 334 337 358 358 361 367 364 365 369 361 359 359 358 364 360 360 361 356 356 364 358 358 356 351 353 348 349 346 346 349 349 351 347 353 356 359 357 354 352 348 348 349
331 334 337 354 360 363 363 365 362 360 360 360 359 358 361 360 359 361 355 366 364 363 355 350 356 352 348 347 342 342 347 346 348 348 349 349 351 356 357 358 357 350 347
330 338 340 345 359 361 357 354 354 351 354 354 355 361 360 360 359 360 357 360 360 359 357 353 350 351 343 344 337 336 338 343 345 343 346 349 349 349 352 355 357 355 351
332 334 341 344 350 356 355 359 351 351 348 351 352 364 358 360 360 360 361 358 361 349 355 350 350 340 335 336 329 328 325 328 331 336 338 342 347 348 346 350 353 355 356
327 336 336 343 352 357 357 354 355 357 354 350 350 354 358 360 359 360 361 356 351 348 337 351 345 346 330 330 341 325 321 318 325 331 336 335 339 334 343 347 350 352 356
325 332 333 346 355 355 358 358 357 351 345 344 349 349 356 360 360 359 352 346 350 339 346 341 338 340 339 327 326 327 335 329 321 321 329 333 337 336 341 341 346 349 352
325 327 336 349 353 356 359 357 350 352 346 351 345 356 356 355 348 340 341 341 346 339 343 347 346 345 332 329 324 323 330 324 329 325 321 324 330 333 338 339 337 339 346
323 330 340 346 348 351 351 354 356 352 348 338 340 335 334 334 337 338 334 343 347 345 344 340 345 345 341 336 329 329 322 320 320 323 321 323 323 327 331 334 336 338 340
Wind_Speed
17 20 15 15 14 12 14 16 15 15 14 14 14 13 13 13 13 13 13 12 11 11 11 11 10 9 9 9 8 8 8 9 10 9 8 8 8 7 4 2 3 6 8
21 20 16 14 14 13 13 16 16 15 15 15 14 13 13 13 13 12 11 11 10 11 11 10 9 9 8 8 8 7 7 7 7 5 7 9 7 4 2 2 9 10 7
20 19 18 15 14 13 13 14 15 15 15 15 14 14 13 12 12 12 11 10 10 9 9 9 8 8 8 8 7 6 5 5 3 6 9 9 11 7 3 2 3 5 4
20 18 18 16 16 15 13 14 15 16 15 15 15 14 14 12 12 12 10 10 9 8 8 8 7 7 7 7 6 5 4 4 4 8 9 4 11 12 6 2 1 2 2
19 19 18 17 16 16 15 15 15 16 15 15 15 14 14 13 12 11 10 10 9 8 7 7 7 6 6 6 5 4 3 2 6 12 7 8 7 12 9 5 6 6 3
19 20 20 19 18 16 16 16 15 15 15 15 14 14 14 14 12 11 9 9 8 6 5 5 5 4 3 3 2 1 2 3 9 14 5 8 4 12 10 7 5 2 3
18 19 19 17 18 18 17 17 17 16 15 15 15 14 13 12 11 10 9 8 7 5 4 4 4 3 2 2 1 2 3 6 10 14 2 3 10 9 9 8 7 6 5
17 19 19 15 15 15 16 15 15 15 15 15 15 14 12 11 10 10 9 7 6 5 5 5 5 4 3 3 3 4 5 7 10 11 6 4 12 8 8 8 9 9 9
17 17 17 17 15 14 13 14 14 14 14 14 14 13 12 11 10 9 9 8 8 7 7 7 7 7 7 7 7 7 7 8 10 9 10 6 11 9 6 9 10 10 11
15 17 16 16 16 15 14 12 13 13 13 12 12 11 11 10 10 10 8 8 8 7 7 7 7 7 8 9 9 9 10 11 12 12 10 3 12 11 9 11 12 13 13
14 17 16 16 16 15 15 13 11 11 11 11 11 11 11 10 12 13 11 12 10 8 8 8 8 8 9 10 11 12 11 8 12 9 6 14 11 7 8 11 12 14 15
15 16 16 16 15 15 13 14 13 12 11 11 12 13 11 11 11 11 12 14 11 10 9 9 10 10 10 10 10 14 8 11 10 8 7 14 12 10 11 12 14 13 14
15 13 16 13 14 15 12 11 8 8 8 9 13 12 11 9 9 8 7 8 8 12 8 12 10 9 12 10 9 11 10 8 6 7 9 12 11 11 12 14 14 15 15
15 14 15 15 13 12 9 10 11 9 10 9 11 12 8 7 7 7 7 9 8 8 10 9 8 9 9 8 9 10 11 9 7 7 9 14 14 15 15 15 15 17 16
15 16 16 17 13 10 8 9 9 9 10 10 11 12 10 10 7 8 7 7 7 9 9 8 8 7 8 11 11 11 12 12 12 9 8 9 12 13 16 17 17 18 17
11 15 17 17 15 14 11 8 8 8 8 9 9 11 14 9 6 8 8 8 8 7 7 7 8 7 8 9 10 11 12 12 13 13 11 11 14 17 16 18 19 20 19
7 32 13 13 16 14 14 11 8 9 10 10 9 10 13 11 8 8 8 8 8 7 8 7 7 7 8 9 11 11 11 13 13 13 12 12 13 17 21 21 21 21 22
10 12 14 11 15 14 12 11 10 10 10 10 10 9 13 12 11 9 8 8 8 7 8 7 6 5 7 8 8 8 10 10 12 12 12 12 12 12 13 21 22 23 22
14 10 9 7 11 15 13 11 11 10 10 9 9 9 12 13 13 10 8 8 7 7 6 7 7 7 7 8 10 10 9 10 12 13 14 13 13 13 11 11 20 21 21
12 8 8 9 9 8 10 10 9 9 9 10 10 10 7 10 12 8 6 8 4 5 10 7 6 8 8 9 10 11 9 11 11 12 14 12 13 14 14 14 11 12 21
5 4 6 7 10 7 9 9 10 10 10 9 10 10 5 8 9 10 9 11 7 10 7 5 6 7 8 8 9 10 10 11 12 11 11 12 14 14 14 12 9 10 10
4 2 6 7 8 8 7 6 7 8 9 9 10 7 5 9 11 9 10 10 8 6 7 6 6 7 8 8 9 10 11 10 10 9 9 10 12 12 13 12 12 12 10
1 5 7 11 4 4 9 4 5 7 6 7 7 8 8 7 9 10 13 7 4 5 7 8 7 8 8 7 7 8 8 11 11 10 12 12 12 10 9 12 8 11 11
3 5 11 8 5 5 5 3 3 5 6 6 7 7 10 12 13 10 8 8 6 6 7 6 6 7 6 8 7 8 9 11 12 13 10 10 11 13 13 7 12 11 13
8 3 7 6 5 5 5 7 9 10 8 3 5 7 3 6 8 9 9 8 7 7 8 6 6 6 7 8 8 9 8 10 10 11 12 10 10 10 11 9 8 7 8
10 8 4 8 11 11 10 12 8 8 5 3 5 6 7 7 8 8 9 7 7 7 8 8 8 9 9 8 9 9 10 10 10 10 11 11 12 11 10 10 10 11 10
Wind_Direction
134 139 135 135 138 144 147 145 143 141 140 141 141 144 138 134 127 126 126 123 119 118 117 118 112 111 114 113 105 103 100 95 94 98 105 101 91 82 78 11 332 114 98
128 146 137 131 135 141 148 149 144 142 144 145 146 145 140 136 131 131 128 125 124 126 120 117 119 120 121 118 117 120 116 113 112 133 147 139 128 114 101 1 4 88 107
130 146 150 131 133 134 141 148 144 143 146 147 148 146 141 135 135 134 132 130 128 129 127 124 127 130 131 131 132 134 129 124 156 217 204 211 110 129 128 45 46 87 95
136 146 149 133 132 133 134 140 143 144 147 150 148 146 139 139 141 139 137 135 133 134 135 134 137 139 139 142 146 147 147 157 230 257 255 81 130 145 144 152 82 101 155
143 153 136 135 133 136 136 141 145 144 147 148 146 143 145 146 146 145 147 146 146 148 149 151 151 153 157 161 162 165 182 201 270 272 257 45 349 130 146 167 190 192 200
148 149 141 142 140 142 142 142 142 142 146 145 145 147 153 152 152 151 152 150 151 153 155 157 161 168 177 181 191 223 272 291 284 257 96 97 262 137 155 183 222 188 202
150 138 153 146 144 145 148 148 145 147 147 148 149 154 158 156 154 151 151 155 153 153 155 164 168 192 227 246 263 274 292 300 287 314 15 159 97 147 164 187 212 220 224
147 133 147 145 142 142 145 147 147 149 149 152 154 158 158 158 156 156 156 161 154 161 171 178 183 198 218 237 255 264 276 284 282 275 277 274 125 144 190 202 213 223 229
147 143 153 162 150 140 145 149 152 153 154 156 157 159 156 159 159 163 165 174 178 179 185 190 195 202 213 220 230 241 252 259 276 280 290 243 128 134 190 223 227 227 231
155 144 158 163 166 171 164 152 154 155 156 156 158 158 158 160 167 179 175 190 193 192 198 205 210 216 222 228 234 241 250 260 255 263 250 211 150 158 186 215 233 229 229
166 148 163 167 167 176 169 163 154 158 159 158 161 165 162 192 182 179 199 169 186 200 208 217 222 228 234 238 232 226 236 252 258 240 258 134 153 166 218 241 231 238 231
175 160 160 171 167 179 167 156 183 177 188 191 187 179 202 206 184 207 182 164 185 203 218 222 225 230 235 253 211 212 230 246 254 264 262 152 164 182 216 232 242 240 238
177 170 160 173 166 188 175 158 185 181 189 193 194 180 213 197 192 197 179 184 208 202 225 205 210 227 236 244 259 199 226 252 261 265 271 160 172 194 219 230 234 238 238
175 179 169 174 172 205 182 171 186 191 191 191 195 188 202 224 201 214 213 212 187 195 214 231 227 219 238 255 267 279 279 274 270 268 268 178 186 200 216 235 238 237 228
180 181 182 169 176 192 221 182 196 204 189 195 187 191 210 210 204 202 228 238 223 208 210 225 236 244 241 235 245 250 255 263 271 274 275 203 196 205 218 224 238 242 238
297 185 178 172 174 189 207 217 203 200 199 213 199 195 210 219 205 220 213 225 244 247 254 245 235 247 241 249 255 257 262 264 266 270 273 272 208 209 217 227 228 236 235
155 269 165 183 174 194 196 208 204 210 229 200 221 199 194 216 225 225 228 222 228 232 250 263 272 256 254 253 249 252 256 259 258 257 261 263 267 216 214 220 220 225 234
325 338 314 189 181 188 203 200 214 217 206 232 212 204 209 208 228 205 242 240 232 233 227 227 238 238 233 248 264 275 272 269 269 270 258 260 267 270 232 222 216 217 224
333 327 290 239 225 182 204 213 210 216 226 218 224 213 190 209 211 228 225 231 227 238 250 247 265 284 283 298 292 277 275 274 268 263 258 267 272 270 271 276 217 220 221
301 310 287 300 219 217 193 212 223 218 219 233 227 222 178 201 212 201 244 247 226 245 249 234 219 274 309 307 288 289 290 288 288 292 293 288 275 268 263 259 260 234 223
323 333 291 273 278 213 203 211 215 219 216 222 233 219 161 197 207 210 234 213 203 235 261 301 280 261 261 266 279 275 279 278 279 279 286 277 271 267 269 274 252 249 251
80 324 247 261 239 226 222 241 249 223 222 221 221 146 164 202 204 199 225 253 192 235 204 236 252 273 278 279 278 286 285 289 289 290 297 294 286 274 270 258 270 263 262
131 29 322 292 235 231 255 240 236 283 256 188 219 189 191 207 204 214 219 240 230 229 255 195 222 242 267 285 279 275 292 295 314 311 303 304 304 294 263 284 298 310 285
193 160 275 238 238 202 224 274 259 268 218 218 228 208 178 198 209 209 221 214 226 246 235 229 219 250 256 267 278 276 272 283 287 292 291 288 283 288 291 294 271 261 257
160 233 265 201 206 217 189 248 205 231 218 183 242 107 176 192 215 217 214 229 229 225 254 250 271 226 252 258 275 284 283 280 274 281 293 296 292 290 265 277 309 300 277
171 160 214 211 217 198 193 219 225 257 291 179 200 168 196 207 194 230 239 223 239 246 250 260 233 242 249 270 281 292 282 281 286 286 290 295 301 293 297 309 305 294 292